Location: Ferris
(32.5340°N, 96.6656°W)
Time: 23:34:17
(UTC+00:00)

Cosmos 1354 Rocket - Pass Details

Date: 23 May 2026
Orbit: 761 x 778 km, 74.0° (Epoch: 7 June)

Event Time Altitude Azimuth Distance (km) Brightness Sun altitude
Rises 02:09:45 0° 6° (N) 3,229 7.6 -9.5°
Reaches altitude 10° 02:13:40 10° 36° (NE) 2,296 6.4 -10.2°
Maximum altitude 02:15:50 13° 61° (ENE) 2,121 6.0 -10.5°
Drops below altitude 10° 02:18:01 10° 86° (E) 2,290 6.0 -10.9°
Enters shadow 02:18:25 - 90° (E) 2,356 6.0 -11.0°
